Winnemucca, NV

8:05 AM PDT on April 25, 2018 (GMT -0700)
Winnemucca Municipal

Weather History for KWMC - June, 2013

Change the Weather History Date:

Wednesday, June 26, 2013

  Actual Average Record
Temperature  
Mean Temperature 70 °F 68 °F  
Max Temperature 90 °F 87 °F 102 °F (1970)
Min Temperature 49 °F 48 °F 32 °F (1975)
Degree Days  
Heating Degree Days 0 1  
Month to date heating degree days 70 100  
Since 1 June heating degree days 70 100  
Since 1 July heating degree days 6410 6300  
Cooling Degree Days 5 4  
Month to date cooling degree days 72 59  
Year to date cooling degree days 73 70  
Since 1 June cooling degree days 72 59  
Growing Degree Days 19 (Base 50)    
Moisture  
Dew Point 41 °F    
Average Humidity 45    
Maximum Humidity 74    
Minimum Humidity 15    
Precipitation  
Precipitation 0.00 in 0.01 in 1.00 in (1971)
Month to date precipitation 0.13 0.52  
Year to date precipitation 1.96 4.89  
Snow  
Snow 0.00 in 0.00 in 0.00 in (1877)
Month to date snowfall 0.0 0.0  
Since 1 June snowfall 0.0 0.0  
Since 1 July snowfall 21.9 20.9  
Snow Depth 0.00 in    
Sea Level Pressure  
Sea Level Pressure 29.96 in    
Wind  
Wind Speed 7 mph (SW)    
Max Wind Speed 23 mph    
Max Gust Speed 29 mph    
Visibility 10 miles    
Events      
T = Trace of Precipitation, MM = Missing Value Source: NWS Daily Summary

Daily Weather History Graph

Daily Weather History Graph

Search for Another Location

Airport or City:

Astronomy

Jun. 26, 2013 Rise Set
Actual Time 5:21 AM PDT 8:27 PM PDT
Civil Twilight 4:47 AM PDT 9:00 PM PDT
Nautical Twilight 4:04 AM PDT 9:43 PM PDT
Astronomical Twilight 3:14 AM PDT 10:33 PM PDT
Moon 10:51 PM PDT (6/26) 9:20 AM PDT (6/26)
Length of Visible Light 16h 13m
Length of Day
15h 06m
Waning Gibbous, 84% of the Moon is Illuminated
Jun 26
Waning Gibbous
Jun 29
Last Quarter
Jul 8
New
Jul 15
First Quarter
Jul 22
Full

Hourly Weather History & Observations

Time (PDT) Temp. Dew Point Humidity Pressure Visibility Wind Dir Wind Speed Gust Speed Precip Events Conditions
12:56 AM 66.0 °F 45.0 °F 47% 29.91 in 10.0 mi WSW 19.6 mph - N/A   Clear
1:56 AM 62.1 °F 45.0 °F 53% 29.92 in 10.0 mi SW 11.5 mph - N/A   Clear
2:56 AM 57.9 °F 44.1 °F 60% 29.95 in 10.0 mi SSE 5.8 mph - N/A   Clear
3:56 AM 57.0 °F 44.1 °F 62% 29.94 in 10.0 mi Calm Calm - N/A   Clear
4:56 AM 52.0 °F 43.0 °F 71% 29.96 in 10.0 mi East 3.5 mph - N/A   Clear
5:56 AM 50.0 °F 42.1 °F 74% 29.99 in 10.0 mi ESE 4.6 mph - N/A   Clear
6:56 AM 60.1 °F 44.1 °F 55% 29.99 in 10.0 mi SE 3.5 mph - N/A   Clear
7:56 AM 64.9 °F 45.0 °F 48% 30.00 in 10.0 mi Calm Calm - N/A   Clear
8:56 AM 72.0 °F 45.0 °F 38% 30.01 in 10.0 mi Calm Calm - N/A   Clear
9:56 AM 75.9 °F 45.0 °F 33% 29.99 in 10.0 mi North 8.1 mph - N/A   Clear
10:56 AM 78.1 °F 44.1 °F 30% 29.99 in 10.0 mi SSE 9.2 mph - N/A   Clear
11:56 AM 82.0 °F 42.1 °F 24% 29.96 in 10.0 mi South 11.5 mph - N/A   Clear
12:56 PM 84.9 °F 41.0 °F 21% 29.94 in 10.0 mi WSW 10.4 mph 18.4 mph N/A   Clear
1:56 PM 89.1 °F 39.9 °F 18% 29.93 in 10.0 mi SW 11.5 mph 18.4 mph N/A   Clear
2:56 PM 89.1 °F 37.9 °F 16% 29.93 in 10.0 mi West 19.6 mph 26.5 mph N/A   Clear
3:56 PM 89.1 °F 39.0 °F 17% 29.93 in 10.0 mi SSW 13.8 mph 21.9 mph N/A   Clear
4:56 PM 89.1 °F 37.9 °F 16% 29.93 in 10.0 mi WSW 10.4 mph - N/A   Clear
5:56 PM 89.1 °F 35.1 °F 15% 29.93 in 10.0 mi SW 15.0 mph 25.3 mph N/A   Clear
6:56 PM 89.1 °F 35.1 °F 15% 29.92 in 10.0 mi West 11.5 mph - N/A   Clear
7:56 PM 82.9 °F 39.9 °F 22% 29.94 in 10.0 mi West 16.1 mph 23.0 mph N/A   Clear
8:56 PM 77.0 °F 39.0 °F 25% 29.96 in 10.0 mi West 4.6 mph - N/A   Clear
9:56 PM 73.9 °F 37.9 °F 27% 30.00 in 10.0 mi South 3.5 mph - N/A   Clear
10:56 PM 68.0 °F 37.0 °F 32% 30.02 in 10.0 mi WSW 3.5 mph - N/A   Clear
11:56 PM 64.0 °F 37.9 °F 38% 30.02 in 10.0 mi Calm Calm - N/A   Clear